Year,Month,Day,Hour,Minute,Value (Times are PST for temperature in C)
2021,04,19,00,00,11.10
2021,04,19,00,01,11.10
2021,04,19,00,02,11.10
2021,04,19,00,03,11.10
2021,04,19,00,04,11.10
2021,04,19,00,05,11.00
2021,04,19,00,06,10.90
2021,04,19,00,07,10.90
2021,04,19,00,08,10.90
2021,04,19,00,09,10.90
2021,04,19,00,10,10.80
2021,04,19,00,11,10.80
2021,04,19,00,12,10.80
2021,04,19,00,13,10.80
2021,04,19,00,14,10.70
2021,04,19,00,15,10.70
2021,04,19,00,16,10.70
2021,04,19,00,17,10.70
2021,04,19,00,18,10.70
2021,04,19,00,19,10.70
2021,04,19,00,20,10.70
2021,04,19,00,21,10.60
2021,04,19,00,22,10.60
2021,04,19,00,23,10.60
2021,04,19,00,24,10.60
2021,04,19,00,25,10.60
2021,04,19,00,26,10.60
2021,04,19,00,27,10.60
2021,04,19,00,28,10.60
2021,04,19,00,29,10.60
2021,04,19,00,30,10.60
2021,04,19,00,31,10.60
2021,04,19,00,32,10.60
2021,04,19,00,33,10.50
2021,04,19,00,34,10.40
2021,04,19,00,35,10.40
2021,04,19,00,36,10.40
2021,04,19,00,37,10.40
2021,04,19,00,38,10.40
2021,04,19,00,39,10.40
2021,04,19,00,40,10.40
2021,04,19,00,41,10.40
2021,04,19,00,42,10.30
2021,04,19,00,43,10.30
2021,04,19,00,44,10.30
2021,04,19,00,45,10.30
2021,04,19,00,46,10.20
2021,04,19,00,47,10.20
2021,04,19,00,48,10.20
2021,04,19,00,49,10.20
2021,04,19,00,50,10.20
2021,04,19,00,51,10.20
2021,04,19,00,52,10.10
2021,04,19,00,53,10.10
2021,04,19,00,54,10.10
2021,04,19,00,55,10.10
2021,04,19,00,56,10.20
2021,04,19,00,57,10.20
2021,04,19,00,58,10.20
2021,04,19,00,59,10.20
2021,04,19,01,00,10.30
2021,04,19,01,01,10.30
2021,04,19,01,02,10.30
2021,04,19,01,03,10.30
2021,04,19,01,04,10.30
2021,04,19,01,05,10.30
2021,04,19,01,06,10.20
2021,04,19,01,07,10.20
2021,04,19,01,08,10.20
2021,04,19,01,09,10.20
2021,04,19,01,10,10.20
2021,04,19,01,11,10.20
2021,04,19,01,12,10.20
2021,04,19,01,13,10.20
2021,04,19,01,14,10.20
2021,04,19,01,15,10.20
2021,04,19,01,16,10.20
2021,04,19,01,17,10.20
2021,04,19,01,18,10.20
2021,04,19,01,19,10.10
2021,04,19,01,20,10.10
2021,04,19,01,21,10.10
2021,04,19,01,22,10.10
2021,04,19,01,23,10.10
2021,04,19,01,24,10.10
2021,04,19,01,25,10.10
2021,04,19,01,26,10.10
2021,04,19,01,27,10.10
2021,04,19,01,28,10.10
2021,04,19,01,29,10.10
2021,04,19,01,30,10.10
2021,04,19,01,31,10.10
2021,04,19,01,32,10.10
2021,04,19,01,33,10.10
2021,04,19,01,34,10.10
2021,04,19,01,35,10.10
2021,04,19,01,36,10.10
2021,04,19,01,37,10.10
2021,04,19,01,38,10.10
2021,04,19,01,39,10.10
2021,04,19,01,40,10.10
2021,04,19,01,41,10.10
2021,04,19,01,42,10.10
2021,04,19,01,43,10.10
2021,04,19,01,44,10.10
2021,04,19,01,45,10.10
2021,04,19,01,46,10.10
2021,04,19,01,47,10.00
2021,04,19,01,48,9.90
2021,04,19,01,49,9.90
2021,04,19,01,50,9.90
2021,04,19,01,51,9.90
2021,04,19,01,52,9.80
2021,04,19,01,53,9.80
2021,04,19,01,54,9.70
2021,04,19,01,55,9.70
2021,04,19,01,56,9.70
2021,04,19,01,57,9.70
2021,04,19,01,58,9.70
2021,04,19,01,59,9.60
2021,04,19,02,00,9.60
2021,04,19,02,01,9.60
2021,04,19,02,02,9.60
2021,04,19,02,03,9.50
2021,04,19,02,04,9.50
2021,04,19,02,05,9.50
2021,04,19,02,06,9.50
2021,04,19,02,07,9.50
2021,04,19,02,08,9.50
2021,04,19,02,09,9.50
2021,04,19,02,10,9.50
2021,04,19,02,11,9.50
2021,04,19,02,12,9.50
2021,04,19,02,13,9.50
2021,04,19,02,14,9.60
2021,04,19,02,15,9.60
2021,04,19,02,16,9.70
2021,04,19,02,17,9.70
2021,04,19,02,18,9.70
2021,04,19,02,19,9.70
2021,04,19,02,20,9.80
2021,04,19,02,21,9.80
2021,04,19,02,22,9.90
2021,04,19,02,23,9.90
2021,04,19,02,24,10.00
2021,04,19,02,25,10.10
2021,04,19,02,26,10.20
2021,04,19,02,27,10.40
2021,04,19,02,28,10.50
2021,04,19,02,29,10.60
2021,04,19,02,30,10.80
2021,04,19,02,31,11.00
2021,04,19,02,32,11.20
2021,04,19,02,33,11.40
2021,04,19,02,34,11.60
2021,04,19,02,35,11.70
2021,04,19,02,36,11.90
2021,04,19,02,37,12.00
2021,04,19,02,38,12.20
2021,04,19,02,39,12.40
2021,04,19,02,40,12.50
2021,04,19,02,41,12.60
2021,04,19,02,42,12.80
2021,04,19,02,43,12.90
2021,04,19,02,44,13.10
2021,04,19,02,45,13.20
2021,04,19,02,46,13.40
2021,04,19,02,47,13.60
2021,04,19,02,48,13.70
2021,04,19,02,49,13.90
2021,04,19,02,50,14.00
2021,04,19,02,51,14.20
2021,04,19,02,52,14.30
2021,04,19,02,53,14.40
2021,04,19,02,54,14.50
2021,04,19,02,55,14.50
2021,04,19,02,56,14.60
2021,04,19,02,57,14.60
2021,04,19,02,58,14.70
2021,04,19,02,59,14.70
2021,04,19,03,00,14.80
2021,04,19,03,01,14.80
2021,04,19,03,02,14.80
2021,04,19,03,03,14.80
2021,04,19,03,04,14.80
2021,04,19,03,05,14.90
2021,04,19,03,06,14.90
2021,04,19,03,07,14.90
2021,04,19,03,08,15.00
2021,04,19,03,09,15.00
2021,04,19,03,10,15.00
2021,04,19,03,11,15.10
2021,04,19,03,12,15.10
2021,04,19,03,13,15.10
2021,04,19,03,14,15.20
2021,04,19,03,15,15.20
2021,04,19,03,16,15.20
2021,04,19,03,17,15.20
2021,04,19,03,18,15.20
2021,04,19,03,19,15.20
2021,04,19,03,20,15.20
2021,04,19,03,21,15.20
2021,04,19,03,22,15.20
2021,04,19,03,23,15.20
2021,04,19,03,24,15.20
2021,04,19,03,25,15.20
2021,04,19,03,26,15.20
2021,04,19,03,27,15.10
2021,04,19,03,28,15.10
2021,04,19,03,29,15.10
2021,04,19,03,30,15.10
2021,04,19,03,31,15.10
2021,04,19,03,32,15.10
2021,04,19,03,33,15.10
2021,04,19,03,34,15.10
2021,04,19,03,35,15.10
2021,04,19,03,36,15.10
2021,04,19,03,37,15.10
2021,04,19,03,38,15.10
2021,04,19,03,39,15.10
2021,04,19,03,40,15.10
2021,04,19,03,41,15.10
2021,04,19,03,42,15.10
2021,04,19,03,43,15.10
2021,04,19,03,44,15.10
2021,04,19,03,45,15.10
2021,04,19,03,46,15.10
2021,04,19,03,47,15.10
2021,04,19,03,48,15.10
2021,04,19,03,49,15.10
2021,04,19,03,50,15.10
2021,04,19,03,51,15.10
2021,04,19,03,52,15.10
2021,04,19,03,53,15.10
2021,04,19,03,54,15.00
2021,04,19,03,55,15.00
2021,04,19,03,56,15.00
2021,04,19,03,57,15.00
2021,04,19,03,58,15.00
2021,04,19,03,59,15.00
2021,04,19,04,00,14.90
2021,04,19,04,01,14.90
2021,04,19,04,02,14.90
2021,04,19,04,03,14.90
2021,04,19,04,04,14.90
2021,04,19,04,05,14.80
2021,04,19,04,06,14.80
2021,04,19,04,07,14.80
2021,04,19,04,08,14.80
2021,04,19,04,09,14.80
2021,04,19,04,10,14.80
2021,04,19,04,11,14.80
2021,04,19,04,12,14.80
2021,04,19,04,13,14.80
2021,04,19,04,14,14.80
2021,04,19,04,15,14.80
2021,04,19,04,16,14.80
2021,04,19,04,17,14.80
2021,04,19,04,18,14.80
2021,04,19,04,19,14.80
2021,04,19,04,20,14.70
2021,04,19,04,21,14.70
2021,04,19,04,22,14.70
2021,04,19,04,23,14.70
2021,04,19,04,24,14.60
2021,04,19,04,25,14.60
2021,04,19,04,26,14.60
2021,04,19,04,27,14.60
2021,04,19,04,28,14.60
2021,04,19,04,29,14.60
2021,04,19,04,30,14.60
2021,04,19,04,31,14.60
2021,04,19,04,32,14.60
2021,04,19,04,33,14.60
2021,04,19,04,34,14.60
2021,04,19,04,35,14.60
2021,04,19,04,36,14.60
2021,04,19,04,37,14.60
2021,04,19,04,38,14.60
2021,04,19,04,39,14.60
2021,04,19,04,40,14.60
2021,04,19,04,41,14.60
2021,04,19,04,42,14.60
2021,04,19,04,43,14.70
2021,04,19,04,44,14.70
2021,04,19,04,45,14.70
2021,04,19,04,46,14.70
2021,04,19,04,47,14.70
2021,04,19,04,48,14.70
2021,04,19,04,49,14.70
2021,04,19,04,50,14.70
2021,04,19,04,51,14.70
2021,04,19,04,52,14.70
2021,04,19,04,53,14.70
2021,04,19,04,54,14.70
2021,04,19,04,55,14.80
2021,04,19,04,56,14.80
2021,04,19,04,57,14.80
2021,04,19,04,58,14.80
2021,04,19,04,59,14.80
2021,04,19,05,00,14.80
2021,04,19,05,01,14.80
2021,04,19,05,02,14.80
2021,04,19,05,03,14.90
2021,04,19,05,04,14.90
2021,04,19,05,05,14.90
2021,04,19,05,06,15.00
2021,04,19,05,07,15.00
2021,04,19,05,08,15.00
2021,04,19,05,09,15.10
2021,04,19,05,10,15.10
2021,04,19,05,11,15.10
2021,04,19,05,12,15.20
2021,04,19,05,13,15.20
2021,04,19,05,14,15.20
2021,04,19,05,15,15.30
2021,04,19,05,16,15.30
2021,04,19,05,17,15.30
2021,04,19,05,18,15.30
2021,04,19,05,19,15.30
2021,04,19,05,20,15.30
2021,04,19,05,21,15.30
2021,04,19,05,22,15.30
2021,04,19,05,23,15.30
2021,04,19,05,24,15.20
2021,04,19,05,25,15.20
2021,04,19,05,26,15.20
2021,04,19,05,27,15.20
2021,04,19,05,28,15.20
2021,04,19,05,29,15.10
2021,04,19,05,30,15.10
2021,04,19,05,31,15.10
2021,04,19,05,32,15.10
2021,04,19,05,33,15.10
2021,04,19,05,34,15.00
2021,04,19,05,35,15.00
2021,04,19,05,36,15.00
2021,04,19,05,37,14.90
2021,04,19,05,38,14.90
2021,04,19,05,39,14.90
2021,04,19,05,40,14.80
2021,04,19,05,41,14.80
2021,04,19,05,42,14.80
2021,04,19,05,43,14.80
2021,04,19,05,44,14.80
2021,04,19,05,45,14.80
2021,04,19,05,46,14.70
2021,04,19,05,47,14.70
2021,04,19,05,48,14.60
2021,04,19,05,49,14.60
2021,04,19,05,50,14.50
2021,04,19,05,51,14.50
2021,04,19,05,52,14.40
2021,04,19,05,53,14.40
2021,04,19,05,54,14.30
2021,04,19,05,55,14.30
2021,04,19,05,56,14.20
2021,04,19,05,57,14.20
2021,04,19,05,58,14.10
2021,04,19,05,59,13.90
2021,04,19,06,00,13.70
2021,04,19,06,01,13.50
2021,04,19,06,02,13.30
2021,04,19,06,03,13.10
2021,04,19,06,04,13.00
2021,04,19,06,05,12.80
2021,04,19,06,06,12.70
2021,04,19,06,07,12.60
2021,04,19,06,08,12.50
2021,04,19,06,09,12.40
2021,04,19,06,10,12.30
2021,04,19,06,11,12.30
2021,04,19,06,12,12.30
2021,04,19,06,13,12.30
2021,04,19,06,14,12.30
2021,04,19,06,15,12.30
2021,04,19,06,16,12.20
2021,04,19,06,17,12.20
2021,04,19,06,18,12.20
2021,04,19,06,19,12.20
2021,04,19,06,20,12.10
2021,04,19,06,21,12.10
2021,04,19,06,22,12.10
2021,04,19,06,23,12.10
2021,04,19,06,24,12.00
2021,04,19,06,25,12.00
2021,04,19,06,26,12.00
2021,04,19,06,27,12.00
2021,04,19,06,28,12.00
2021,04,19,06,29,12.00
2021,04,19,06,30,12.00
2021,04,19,06,31,11.90
2021,04,19,06,32,11.90
2021,04,19,06,33,11.90
2021,04,19,06,34,11.90
2021,04,19,06,35,11.80
2021,04,19,06,36,11.80
2021,04,19,06,37,11.80
2021,04,19,06,38,11.80
2021,04,19,06,39,11.80
2021,04,19,06,40,11.80
2021,04,19,06,41,11.70
2021,04,19,06,42,11.70
2021,04,19,06,43,11.70
2021,04,19,06,44,11.70
2021,04,19,06,45,11.70
2021,04,19,06,46,11.70
2021,04,19,06,47,11.70
2021,04,19,06,48,11.70
2021,04,19,06,49,11.70
2021,04,19,06,50,11.70
2021,04,19,06,51,11.70
2021,04,19,06,52,11.70
2021,04,19,06,53,11.70
2021,04,19,06,54,11.70
2021,04,19,06,55,11.70
2021,04,19,06,56,11.70
2021,04,19,06,57,11.70
2021,04,19,06,58,11.70
2021,04,19,06,59,11.80
2021,04,19,07,00,11.80
2021,04,19,07,01,11.80
2021,04,19,07,02,11.80
2021,04,19,07,03,11.80
2021,04,19,07,04,11.80
2021,04,19,07,05,11.80
2021,04,19,07,06,11.90
2021,04,19,07,07,11.90
2021,04,19,07,08,11.90
2021,04,19,07,09,11.90
2021,04,19,07,10,11.90
2021,04,19,07,11,12.00
2021,04,19,07,12,12.00
2021,04,19,07,13,12.00
2021,04,19,07,14,12.00
2021,04,19,07,15,12.10
2021,04,19,07,16,12.10
2021,04,19,07,17,12.10
2021,04,19,07,18,12.20
2021,04,19,07,19,12.20
2021,04,19,07,20,12.20
2021,04,19,07,21,12.30
2021,04,19,07,22,12.30
2021,04,19,07,23,12.30
2021,04,19,07,24,12.30
2021,04,19,07,25,12.30
2021,04,19,07,26,12.30
2021,04,19,07,27,12.40
2021,04,19,07,28,12.40
2021,04,19,07,29,12.50
2021,04,19,07,30,12.50
2021,04,19,07,31,12.60
2021,04,19,07,32,12.60
2021,04,19,07,33,12.70
2021,04,19,07,34,12.70
2021,04,19,07,35,12.80
2021,04,19,07,36,12.80
2021,04,19,07,37,12.80
2021,04,19,07,38,12.80
2021,04,19,07,39,12.90
2021,04,19,07,40,13.00
2021,04,19,07,41,13.00
2021,04,19,07,42,13.10
2021,04,19,07,43,13.10
2021,04,19,07,44,13.20
2021,04,19,07,45,13.20
2021,04,19,07,46,13.30
2021,04,19,07,47,13.30
2021,04,19,07,48,13.30
2021,04,19,07,49,13.40
2021,04,19,07,50,13.50
2021,04,19,07,51,13.50
2021,04,19,07,52,13.60
2021,04,19,07,53,13.60
2021,04,19,07,54,13.70
2021,04,19,07,55,13.70
2021,04,19,07,56,13.80
2021,04,19,07,57,13.90
2021,04,19,07,58,13.90
2021,04,19,07,59,13.90
2021,04,19,08,00,14.00
2021,04,19,08,01,14.00
2021,04,19,08,02,14.00
2021,04,19,08,03,14.10
2021,04,19,08,04,14.10
2021,04,19,08,05,14.20
2021,04,19,08,06,14.20
2021,04,19,08,07,14.20
2021,04,19,08,08,14.20
2021,04,19,08,09,14.20
2021,04,19,08,10,14.30
2021,04,19,08,11,14.30
2021,04,19,08,12,14.30
2021,04,19,08,13,14.30
2021,04,19,08,14,14.40
2021,04,19,08,15,14.40
2021,04,19,08,16,14.40
2021,04,19,08,17,14.40
2021,04,19,08,18,14.50
2021,04,19,08,19,14.50
2021,04,19,08,20,14.60
2021,04,19,08,21,14.60
2021,04,19,08,22,14.70
2021,04,19,08,23,14.70
2021,04,19,08,24,14.80
2021,04,19,08,25,14.80
2021,04,19,08,26,14.80
2021,04,19,08,27,14.80
2021,04,19,08,28,14.80
2021,04,19,08,29,14.80
2021,04,19,08,30,14.80
2021,04,19,08,31,14.80
2021,04,19,08,32,14.80
2021,04,19,08,33,14.80
2021,04,19,08,34,14.90
2021,04,19,08,35,15.00
2021,04,19,08,36,15.00
2021,04,19,08,37,15.10
2021,04,19,08,38,15.10
2021,04,19,08,39,15.20
2021,04,19,08,40,15.20
2021,04,19,08,41,15.30
2021,04,19,08,42,15.30
2021,04,19,08,43,15.30
2021,04,19,08,44,15.40
2021,04,19,08,45,15.50
2021,04,19,08,46,15.50
2021,04,19,08,47,15.60
2021,04,19,08,48,15.60
2021,04,19,08,49,15.60
2021,04,19,08,50,15.70
2021,04,19,08,51,15.80
2021,04,19,08,52,15.80
2021,04,19,08,53,15.80
2021,04,19,08,54,15.80
2021,04,19,08,55,15.80
2021,04,19,08,56,15.80
2021,04,19,08,57,15.80
2021,04,19,08,58,15.80
2021,04,19,08,59,15.80
2021,04,19,09,00,15.80
2021,04,19,09,01,15.90
2021,04,19,09,02,16.00
2021,04,19,09,03,16.10
2021,04,19,09,04,16.10
2021,04,19,09,05,16.10
2021,04,19,09,06,16.20
2021,04,19,09,07,16.30
2021,04,19,09,08,16.40
2021,04,19,09,09,16.40
2021,04,19,09,10,16.50
2021,04,19,09,11,16.70
2021,04,19,09,12,16.70
2021,04,19,09,13,16.70
2021,04,19,09,14,16.70
2021,04,19,09,15,16.80
2021,04,19,09,16,16.80
2021,04,19,09,17,16.80
2021,04,19,09,18,16.80
2021,04,19,09,19,16.80
2021,04,19,09,20,16.80
2021,04,19,09,21,16.80
2021,04,19,09,22,16.90
2021,04,19,09,23,16.90
2021,04,19,09,24,16.90
2021,04,19,09,25,16.90
2021,04,19,09,26,17.00
2021,04,19,09,27,17.00
2021,04,19,09,28,17.10
2021,04,19,09,29,17.10
2021,04,19,09,30,17.10
2021,04,19,09,31,17.10
2021,04,19,09,32,17.10
2021,04,19,09,33,17.10
2021,04,19,09,34,17.20
2021,04,19,09,35,17.20
2021,04,19,09,36,17.30
2021,04,19,09,37,17.30
2021,04,19,09,38,17.30
2021,04,19,09,39,17.20
2021,04,19,09,40,17.20
2021,04,19,09,41,17.20
2021,04,19,09,42,17.20
2021,04,19,09,43,17.30
2021,04,19,09,44,17.30
2021,04,19,09,45,17.30
2021,04,19,09,46,17.30
2021,04,19,09,47,17.40
2021,04,19,09,48,17.50
2021,04,19,09,49,17.50
2021,04,19,09,50,17.50
2021,04,19,09,51,17.60
2021,04,19,09,52,17.60
2021,04,19,09,53,17.70
2021,04,19,09,54,17.80
2021,04,19,09,55,17.80
2021,04,19,09,56,17.80
2021,04,19,09,57,17.80
2021,04,19,09,58,17.80
2021,04,19,09,59,17.80
2021,04,19,10,00,17.80
2021,04,19,10,01,17.80
2021,04,19,10,02,17.80
2021,04,19,10,03,17.80
2021,04,19,10,04,17.90
2021,04,19,10,05,17.90
2021,04,19,10,06,17.90
2021,04,19,10,07,17.90
2021,04,19,10,08,17.90
2021,04,19,10,09,18.00
2021,04,19,10,10,18.10
2021,04,19,10,11,18.20
2021,04,19,10,12,18.20
2021,04,19,10,13,18.20
2021,04,19,10,14,18.20
2021,04,19,10,15,18.20
2021,04,19,10,16,18.20
2021,04,19,10,17,18.20
2021,04,19,10,18,18.20
2021,04,19,10,19,18.30
2021,04,19,10,20,18.30
2021,04,19,10,21,18.20
2021,04,19,10,22,18.20
2021,04,19,10,23,18.20
2021,04,19,10,24,18.20
2021,04,19,10,25,18.20
2021,04,19,10,26,18.20
2021,04,19,10,27,18.20
2021,04,19,10,28,18.00
2021,04,19,10,29,17.90
2021,04,19,10,30,17.90
2021,04,19,10,31,17.80
2021,04,19,10,32,17.80
2021,04,19,10,33,17.80
2021,04,19,10,34,17.80
2021,04,19,10,35,17.80
2021,04,19,10,36,17.80
2021,04,19,10,37,17.80
2021,04,19,10,38,17.80
2021,04,19,10,39,17.90
2021,04,19,10,40,17.90
2021,04,19,10,41,17.90
2021,04,19,10,42,17.90
2021,04,19,10,43,18.10
2021,04,19,10,44,18.10
2021,04,19,10,45,18.20
2021,04,19,10,46,18.20
2021,04,19,10,47,18.30
2021,04,19,10,48,18.30
2021,04,19,10,49,18.40
2021,04,19,10,50,18.50
2021,04,19,10,51,18.60
2021,04,19,10,52,18.70
2021,04,19,10,53,18.80
2021,04,19,10,54,18.90
2021,04,19,10,55,19.00
2021,04,19,10,56,19.10
2021,04,19,10,57,19.20
2021,04,19,10,58,19.20
2021,04,19,10,59,19.20
2021,04,19,11,00,19.30
2021,04,19,11,01,19.30
2021,04,19,11,02,19.30
2021,04,19,11,03,19.40
2021,04,19,11,04,19.50
2021,04,19,11,05,19.60
2021,04,19,11,06,19.60
2021,04,19,11,07,19.70
2021,04,19,11,08,19.60
2021,04,19,11,09,19.70
2021,04,19,11,10,19.70
2021,04,19,11,11,19.70
2021,04,19,11,12,19.80
2021,04,19,11,13,19.80
2021,04,19,11,14,19.80
2021,04,19,11,15,19.90
2021,04,19,11,16,19.90
2021,04,19,11,17,19.90
2021,04,19,11,18,19.80
2021,04,19,11,19,19.70
2021,04,19,11,20,19.70
2021,04,19,11,21,19.60
2021,04,19,11,22,19.40
2021,04,19,11,23,19.30
2021,04,19,11,24,19.10
2021,04,19,11,25,18.90
2021,04,19,11,26,18.80
2021,04,19,11,27,18.70
2021,04,19,11,28,18.60
2021,04,19,11,29,18.50
2021,04,19,11,30,18.40
2021,04,19,11,31,18.30
2021,04,19,11,32,18.30
2021,04,19,11,33,18.20
2021,04,19,11,34,18.10
2021,04,19,11,35,18.10
2021,04,19,11,36,18.10
2021,04,19,11,37,18.00
2021,04,19,11,38,17.90
2021,04,19,11,39,17.90
2021,04,19,11,40,18.10
2021,04,19,11,41,18.10
2021,04,19,11,42,18.10
2021,04,19,11,43,18.20
2021,04,19,11,44,18.20
2021,04,19,11,45,18.20
2021,04,19,11,46,18.20
2021,04,19,11,47,18.30
2021,04,19,11,48,18.30
2021,04,19,11,49,18.30
2021,04,19,11,50,18.40
2021,04,19,11,51,18.40
2021,04,19,11,52,18.50
2021,04,19,11,53,18.50
2021,04,19,11,54,18.60
2021,04,19,11,55,18.60
2021,04,19,11,56,18.60
2021,04,19,11,57,18.60
2021,04,19,11,58,18.50
2021,04,19,11,59,18.50
2021,04,19,12,00,18.40
2021,04,19,12,01,18.30
2021,04,19,12,02,18.30
2021,04,19,12,03,18.50
2021,04,19,12,04,18.50
2021,04,19,12,05,18.50
2021,04,19,12,06,18.60
2021,04,19,12,07,18.70
2021,04,19,12,08,18.70
2021,04,19,12,09,18.70
2021,04,19,12,10,18.70
2021,04,19,12,11,18.70
2021,04,19,12,12,18.70
2021,04,19,12,13,18.80
2021,04,19,12,14,18.90
2021,04,19,12,15,18.90
2021,04,19,12,16,19.00
2021,04,19,12,17,19.00
2021,04,19,12,18,18.90
2021,04,19,12,19,18.90
2021,04,19,12,20,18.90
2021,04,19,12,21,18.90
2021,04,19,12,22,18.90
2021,04,19,12,23,19.10
2021,04,19,12,24,19.20
2021,04,19,12,25,19.40
2021,04,19,12,26,19.50
2021,04,19,12,27,19.50
2021,04,19,12,28,19.60
2021,04,19,12,29,19.50
2021,04,19,12,30,19.50
2021,04,19,12,31,19.50
2021,04,19,12,32,19.50
2021,04,19,12,33,19.40
2021,04,19,12,34,19.50
2021,04,19,12,35,19.60
2021,04,19,12,36,19.70
2021,04,19,12,37,19.80
2021,04,19,12,38,19.80
2021,04,19,12,39,19.90
2021,04,19,12,40,19.90
2021,04,19,12,41,19.90
2021,04,19,12,42,20.00
2021,04,19,12,43,20.10
2021,04,19,12,44,20.20
2021,04,19,12,45,20.30
2021,04,19,12,46,20.30
2021,04,19,12,47,20.40
2021,04,19,12,48,20.50
2021,04,19,12,49,20.60
2021,04,19,12,50,20.70
2021,04,19,12,51,20.70
2021,04,19,12,52,20.80
2021,04,19,12,53,20.70
2021,04,19,12,54,20.60
2021,04,19,12,55,20.60
2021,04,19,12,56,20.60
2021,04,19,12,57,20.60
2021,04,19,12,58,20.70
2021,04,19,12,59,20.80
2021,04,19,13,00,20.90
2021,04,19,13,01,21.00
2021,04,19,13,02,21.20
2021,04,19,13,03,21.30
2021,04,19,13,04,21.40
2021,04,19,13,05,21.60
2021,04,19,13,06,21.60
2021,04,19,13,07,21.70
2021,04,19,13,08,21.70
2021,04,19,13,09,21.60
2021,04,19,13,10,21.60
2021,04,19,13,11,21.60
2021,04,19,13,12,21.60
2021,04,19,13,13,21.60
2021,04,19,13,14,21.50
2021,04,19,13,15,21.30
2021,04,19,13,16,21.10
2021,04,19,13,17,20.90
2021,04,19,13,18,20.70
2021,04,19,13,19,20.60
2021,04,19,13,20,20.60
2021,04,19,13,21,20.50
2021,04,19,13,22,20.50
2021,04,19,13,23,20.50
2021,04,19,13,24,20.60
2021,04,19,13,25,20.60
2021,04,19,13,26,20.60
2021,04,19,13,27,20.40
2021,04,19,13,28,20.10
2021,04,19,13,29,20.00
2021,04,19,13,30,19.90
2021,04,19,13,31,19.90
2021,04,19,13,32,20.00
2021,04,19,13,33,20.10
2021,04,19,13,34,20.10
2021,04,19,13,35,20.10
2021,04,19,13,36,20.00
2021,04,19,13,37,19.90
2021,04,19,13,38,20.00
2021,04,19,13,39,20.10
2021,04,19,13,40,20.20
2021,04,19,13,41,20.40
2021,04,19,13,42,20.50
2021,04,19,13,43,20.60
2021,04,19,13,44,20.70
2021,04,19,13,45,20.80
2021,04,19,13,46,20.90
2021,04,19,13,47,21.00
2021,04,19,13,48,21.10
2021,04,19,13,49,21.20
2021,04,19,13,50,21.20
2021,04,19,13,51,21.30
2021,04,19,13,52,21.30
2021,04,19,13,53,21.30
2021,04,19,13,54,21.40
2021,04,19,13,55,21.50
2021,04,19,13,56,21.60
2021,04,19,13,57,21.60
2021,04,19,13,58,21.70
2021,04,19,13,59,21.70
2021,04,19,14,00,21.70
2021,04,19,14,01,21.70
2021,04,19,14,02,21.60
2021,04,19,14,03,21.70
2021,04,19,14,04,21.70
2021,04,19,14,05,21.80
2021,04,19,14,06,21.90
2021,04,19,14,07,22.00
2021,04,19,14,08,22.00
2021,04,19,14,09,22.00
2021,04,19,14,10,22.00
2021,04,19,14,11,21.90
2021,04,19,14,12,22.00
2021,04,19,14,13,22.00
2021,04,19,14,14,22.00
2021,04,19,14,15,22.00
2021,04,19,14,16,22.10
2021,04,19,14,17,22.10
2021,04,19,14,18,22.10
2021,04,19,14,19,22.10
2021,04,19,14,20,22.10
2021,04,19,14,21,22.10
2021,04,19,14,22,22.10
2021,04,19,14,23,22.10
2021,04,19,14,24,22.10
2021,04,19,14,25,22.10
2021,04,19,14,26,22.10
2021,04,19,14,27,22.00
2021,04,19,14,28,21.90
2021,04,19,14,29,21.80
2021,04,19,14,30,21.70
2021,04,19,14,31,21.60
2021,04,19,14,32,21.60
2021,04,19,14,33,21.50
2021,04,19,14,34,21.40
2021,04,19,14,35,21.40
2021,04,19,14,36,21.40
2021,04,19,14,37,21.50
2021,04,19,14,38,21.60
2021,04,19,14,39,21.70
2021,04,19,14,40,21.80
2021,04,19,14,41,21.90
2021,04,19,14,42,21.90
2021,04,19,14,43,21.90
2021,04,19,14,44,21.90
2021,04,19,14,45,21.90
2021,04,19,14,46,21.80
2021,04,19,14,47,21.70
2021,04,19,14,48,21.60
2021,04,19,14,49,21.60
2021,04,19,14,50,21.50
2021,04,19,14,51,21.40
2021,04,19,14,52,21.30
2021,04,19,14,53,21.30
2021,04,19,14,54,21.30
2021,04,19,14,55,21.30
2021,04,19,14,56,21.50
2021,04,19,14,57,21.60
2021,04,19,14,58,21.60
2021,04,19,14,59,21.60
2021,04,19,15,00,21.60
2021,04,19,15,01,21.60
2021,04,19,15,02,21.60
2021,04,19,15,03,21.60
2021,04,19,15,04,21.60
2021,04,19,15,05,21.60
2021,04,19,15,06,21.60
2021,04,19,15,07,21.60
2021,04,19,15,08,21.60
2021,04,19,15,09,21.60
2021,04,19,15,10,21.80
2021,04,19,15,11,21.90
2021,04,19,15,12,22.00
2021,04,19,15,13,22.10
2021,04,19,15,14,22.10
2021,04,19,15,15,22.00
2021,04,19,15,16,22.00
2021,04,19,15,17,21.90
2021,04,19,15,18,21.90
2021,04,19,15,19,21.90
2021,04,19,15,20,21.90
2021,04,19,15,21,22.00
2021,04,19,15,22,22.00
2021,04,19,15,23,21.90
2021,04,19,15,24,21.90
2021,04,19,15,25,21.80
2021,04,19,15,26,21.80
2021,04,19,15,27,21.60
2021,04,19,15,28,21.50
2021,04,19,15,29,21.30
2021,04,19,15,30,21.10
2021,04,19,15,31,21.00
2021,04,19,15,32,21.00
2021,04,19,15,33,20.90
2021,04,19,15,34,20.90
2021,04,19,15,35,20.80
2021,04,19,15,36,20.80
2021,04,19,15,37,20.90
2021,04,19,15,38,20.90
2021,04,19,15,39,21.00
2021,04,19,15,40,21.10
2021,04,19,15,41,21.20
2021,04,19,15,42,21.30
2021,04,19,15,43,21.40
2021,04,19,15,44,21.40
2021,04,19,15,45,21.40
2021,04,19,15,46,21.40
2021,04,19,15,47,21.40
2021,04,19,15,48,21.40
2021,04,19,15,49,21.40
2021,04,19,15,50,21.40
2021,04,19,15,51,21.40
2021,04,19,15,52,21.30
2021,04,19,15,53,21.20
2021,04,19,15,54,21.10
2021,04,19,15,55,21.00
2021,04,19,15,56,21.00
2021,04,19,15,57,21.00
2021,04,19,15,58,21.00
2021,04,19,15,59,21.10
2021,04,19,16,00,21.10
2021,04,19,16,01,21.20
2021,04,19,16,02,21.20
2021,04,19,16,03,21.30
2021,04,19,16,04,21.40
2021,04,19,16,05,21.50
2021,04,19,16,06,21.60
2021,04,19,16,07,21.60
2021,04,19,16,08,21.60
2021,04,19,16,09,21.70
2021,04,19,16,10,21.70
2021,04,19,16,11,21.80
2021,04,19,16,12,21.80
2021,04,19,16,13,21.80
2021,04,19,16,14,21.80
2021,04,19,16,15,21.80
2021,04,19,16,16,21.80
2021,04,19,16,17,21.80
2021,04,19,16,18,21.60
2021,04,19,16,19,21.60
2021,04,19,16,20,21.50
2021,04,19,16,21,21.30
2021,04,19,16,22,21.00
2021,04,19,16,23,20.80
2021,04,19,16,24,20.70
2021,04,19,16,25,20.60
2021,04,19,16,26,20.50
2021,04,19,16,27,20.40
2021,04,19,16,28,20.40
2021,04,19,16,29,20.30
2021,04,19,16,30,20.20
2021,04,19,16,31,20.20
2021,04,19,16,32,20.20
2021,04,19,16,33,20.10
2021,04,19,16,34,20.10
2021,04,19,16,35,20.00
2021,04,19,16,36,20.00
2021,04,19,16,37,20.10
2021,04,19,16,38,20.10
2021,04,19,16,39,20.10
2021,04,19,16,40,20.10
2021,04,19,16,41,20.20
2021,04,19,16,42,20.20
2021,04,19,16,43,20.20
2021,04,19,16,44,20.20
2021,04,19,16,45,20.20
2021,04,19,16,46,20.20
2021,04,19,16,47,20.20
2021,04,19,16,48,20.20
2021,04,19,16,49,20.30
2021,04,19,16,50,20.30
2021,04,19,16,51,20.40
2021,04,19,16,52,20.40
2021,04,19,16,53,20.40
2021,04,19,16,54,20.40
2021,04,19,16,55,20.40
2021,04,19,16,56,20.40
2021,04,19,16,57,20.40
2021,04,19,16,58,20.40
2021,04,19,16,59,20.40
2021,04,19,17,00,20.50
2021,04,19,17,01,20.50
2021,04,19,17,02,20.50
2021,04,19,17,03,20.50
2021,04,19,17,04,20.60
2021,04,19,17,05,20.60
2021,04,19,17,06,20.70
2021,04,19,17,07,20.70
2021,04,19,17,08,20.70
2021,04,19,17,09,20.80
2021,04,19,17,10,20.80
2021,04,19,17,11,20.70
2021,04,19,17,12,20.70
2021,04,19,17,13,20.70
2021,04,19,17,14,20.70
2021,04,19,17,15,20.70
2021,04,19,17,16,20.70
2021,04,19,17,17,20.60
2021,04,19,17,18,20.50
2021,04,19,17,19,20.50
2021,04,19,17,20,20.50
2021,04,19,17,21,20.50